Weather History for Taylorville, IL

Change the Weather History Date:

Wednesday, March 12, 2014

  Actual Average (KSPI) Record (KSPI)
Temperature  
Mean Temperature 32 °F 41 °F  
Max Temperature 35 °F 50 °F 80 °F (1990)
Min Temperature 28 °F 31 °F -8 °F (1948)
Degree Days  
Heating Degree Days 34 24  
Month to date heating degree days 319  
Since 1 July heating degree days 4590  
Cooling Degree Days 0 0  
Month to date cooling degree days 0  
Year to date cooling degree days 0  
Moisture  
Dew Point 29 °F    
Average Humidity 88    
Maximum Humidity 100    
Minimum Humidity 69    
Precipitation  
Precipitation 0.49 in 0.08 in 2.18 in (2006)
Month to date precipitation 0.97  
Year to date precipitation 4.60  
Snow  
Snow 0.00 in 0.10 in 3.90 in (1980)
Month to date snowfall 1.4  
Since 1 July snowfall 19.5  
Snow Depth -    
Sea Level Pressure  
Sea Level Pressure 29.89 in    
Wind  
Wind Speed 20 mph (NNW)    
Max Wind Speed 30 mph    
Max Gust Speed 36 mph    
Visibility 8 miles    
Events Rain , Snow , Thunderstorm    
T = Trace of Precipitation, MM = Missing Value Source: NWS Daily Summary

Daily Weather History Graph

Daily Weather History Graph

Search for Another Location

Airport:

Trip Planner

Search our weather history database for the weather conditions in past years. The results will help you decide how hot, cold, wet, or windy it might be!

Date:

Astronomy

Mar. 12, 2014 Rise Set
Actual Time 7:13 AM CDT 7:01 PM CDT
Civil Twilight 6:46 AM CDT 7:28 PM CDT
Nautical Twilight 6:15 AM CDT 7:59 PM CDT
Astronomical Twilight 5:44 AM CDT 8:30 PM CDT
Moon 3:32 PM CDT (3/12) 4:44 AM CDT (3/12)
Length of Visible Light 12h 41m
Length of Day
11h 47m
Waxing Gibbous, 85% of the Moon is Illuminated
Mar 12
Waxing Gibbous
Mar 16
Full
Mar 23
Last Quarter
Mar 30
New
Apr 7
First Quarter

Hourly Weather History & Observations

Time (CDT) Temp. Windchill Dew Point Humidity Pressure Visibility Wind Dir Wind Speed Gust Speed Precip Events Conditions
12:15 AM 35.6 °F 24.5 °F 35.6 °F 100% 29.54 in 7.0 mi North 20.7 mph 27.6 mph 0.02 in Rain , Thunderstorm Rain
12:35 AM 35.6 °F 24.8 °F 35.6 °F 100% 29.53 in 5.0 mi North 19.6 mph 28.8 mph 0.05 in Rain , Thunderstorm Light Thunderstorms and Rain
12:55 AM 35.6 °F 23.0 °F 35.6 °F 100% 29.50 in 4.0 mi NNE 27.6 mph 34.5 mph 0.09 in Rain Light Rain
1:15 AM 35.6 °F 24.8 °F 35.6 °F 100% 29.48 in 7.0 mi NE 19.6 mph 33.4 mph 0.02 in Rain Rain
1:35 AM 35.6 °F 24.5 °F 35.6 °F 100% 29.50 in 5.0 mi NNE 20.7 mph 24.2 mph 0.05 in Rain Rain
1:55 AM 35.6 °F 23.4 °F 35.6 °F 100% 29.55 in 1.5 mi North 25.3 mph 31.1 mph 0.18 in Rain Light Rain
2:15 AM 35.6 °F 24.2 °F 35.6 °F 100% 29.60 in 2.0 mi NNW 21.9 mph 32.2 mph 0.07 in Rain Light Rain
2:35 AM 35.6 °F 22.5 °F 33.8 °F 93% 29.59 in 3.0 mi North 29.9 mph 35.7 mph 0.14 in Rain Light Rain
2:55 AM 32.0 °F 17.9 °F 32.0 °F 100% 29.61 in 3.0 mi NNW 28.8 mph 35.7 mph 0.16 in Snow Light Snow
3:15 AM 32.0 °F 18.4 °F 32.0 °F 100% 29.60 in 5.0 mi NNW 26.5 mph 35.7 mph 0.01 in Rain Light Rain
3:35 AM 32.0 °F 18.4 °F 32.0 °F 100% 29.61 in 2.5 mi NNW 26.5 mph 35.7 mph 0.02 in Snow Light Snow
3:55 AM 32.0 °F 18.4 °F 32.0 °F 100% 29.60 in 7.0 mi North 26.5 mph - 0.02 in Snow Light Snow
4:15 AM 32.0 °F 18.1 °F 32.0 °F 100% 29.62 in 10.0 mi North 27.6 mph 33.4 mph N/A Rain Light Rain
4:35 AM 32.0 °F 18.1 °F 32.0 °F 100% 29.63 in 5.0 mi NNW 27.6 mph 34.5 mph 0.01 in Snow Light Snow
4:55 AM 32.0 °F 17.9 °F 32.0 °F 100% 29.65 in 5.0 mi NNW 28.8 mph 33.4 mph 0.01 in Snow Light Snow
5:15 AM 32.0 °F 18.6 °F 32.0 °F 100% 29.68 in 5.0 mi NNW 25.3 mph 31.1 mph N/A Rain Light Rain
5:35 AM 32.0 °F 18.6 °F 32.0 °F 100% 29.70 in 2.5 mi NNW 25.3 mph 31.1 mph N/A Snow Light Snow
5:55 AM 32.0 °F 19.2 °F 32.0 °F 100% 29.72 in 5.0 mi NNW 23.0 mph 31.1 mph 0.01 in Snow Light Snow
6:15 AM 32.0 °F 19.8 °F 32.0 °F 100% 29.74 in 3.0 mi NNW 20.7 mph 26.5 mph N/A Snow Light Snow
6:35 AM 32.0 °F 20.5 °F 32.0 °F 100% 29.76 in 1.8 mi NNW 18.4 mph - N/A Snow Light Snow
6:55 AM 32.0 °F 20.5 °F 32.0 °F 100% 29.77 in 2.5 mi NW 18.4 mph - 0.01 in Snow Light Snow
7:15 AM 32.0 °F 20.1 °F 32.0 °F 100% 29.78 in 3.0 mi NNW 19.6 mph 25.3 mph N/A Snow Light Snow
7:35 AM 32.0 °F 19.8 °F 32.0 °F 100% 29.80 in 2.5 mi NNW 20.7 mph - N/A Snow Light Snow
7:55 AM 32.0 °F 20.1 °F 32.0 °F 100% 29.81 in 7.0 mi NNW 19.6 mph 24.2 mph N/A Snow Light Snow
8:15 AM 32.0 °F 19.8 °F 30.2 °F 93% 29.83 in 10.0 mi NNW 20.7 mph 27.6 mph 0.01 in   Overcast
8:35 AM 32.0 °F 20.5 °F 30.2 °F 93% 29.84 in 10.0 mi North 18.4 mph 26.5 mph 0.01 in   Overcast
8:55 AM 32.0 °F 19.8 °F 30.2 °F 93% 29.86 in 10.0 mi NNW 20.7 mph 31.1 mph 0.01 in   Overcast
9:15 AM 32.0 °F 19.8 °F 30.2 °F 93% 29.87 in 10.0 mi NNW 20.7 mph 25.3 mph N/A   Overcast
9:35 AM 32.0 °F 20.5 °F 30.2 °F 93% 29.89 in 10.0 mi NNW 18.4 mph 25.3 mph N/A   Overcast
9:55 AM 32.0 °F 19.8 °F 30.2 °F 93% 29.91 in 10.0 mi NNW 20.7 mph 25.3 mph N/A   Overcast
10:15 AM 33.8 °F 22.2 °F 30.2 °F 87% 29.92 in 10.0 mi NNW 20.7 mph 24.2 mph N/A   Overcast
10:35 AM 33.8 °F 22.2 °F 28.4 °F 81% 29.93 in 10.0 mi NNW 20.7 mph 28.8 mph N/A   Overcast
10:55 AM 33.8 °F 22.2 °F 30.2 °F 87% 29.94 in 10.0 mi NNW 20.7 mph 26.5 mph N/A   Overcast
11:15 AM 33.8 °F 23.2 °F 28.4 °F 81% 29.95 in 10.0 mi NNW 17.3 mph 25.3 mph N/A   Overcast
11:35 AM 33.8 °F 23.5 °F 28.4 °F 81% 29.95 in 10.0 mi NW 16.1 mph 25.3 mph N/A   Overcast
11:55 AM 33.8 °F 21.9 °F 30.2 °F 87% 29.96 in 10.0 mi NW 21.9 mph 26.5 mph N/A   Overcast
12:15 PM 35.6 °F 25.2 °F 30.2 °F 81% 29.97 in 10.0 mi NNW 18.4 mph 23.0 mph N/A   Overcast
12:35 PM 33.8 °F 22.8 °F 28.4 °F 81% 29.97 in 10.0 mi NW 18.4 mph 24.2 mph N/A   Overcast
12:55 PM 33.8 °F 23.2 °F 28.4 °F 81% 29.98 in 10.0 mi NW 17.3 mph 24.2 mph N/A   Overcast
1:15 PM 33.8 °F 24.8 °F 30.2 °F 87% 29.99 in 7.0 mi NW 12.7 mph 19.6 mph N/A Snow Light Snow
1:35 PM 33.8 °F 23.2 °F 30.2 °F 87% 29.99 in 10.0 mi WNW 17.3 mph 21.9 mph N/A   Overcast
1:55 PM 33.8 °F 24.3 °F 30.2 °F 87% 29.99 in 10.0 mi NW 13.8 mph - N/A   Overcast
2:15 PM 33.8 °F 23.5 °F 28.4 °F 81% 29.99 in 10.0 mi NW 16.1 mph 21.9 mph N/A   Overcast
2:35 PM 33.8 °F 23.9 °F 28.4 °F 81% 29.99 in 10.0 mi WNW 15.0 mph 20.7 mph N/A   Overcast
2:55 PM 33.8 °F 22.2 °F 28.4 °F 81% 29.99 in 10.0 mi WNW 20.7 mph 25.3 mph N/A   Overcast
3:15 PM 33.8 °F 22.5 °F 28.4 °F 81% 30.00 in 10.0 mi WNW 19.6 mph 27.6 mph N/A   Overcast
3:35 PM 33.8 °F 24.3 °F 26.6 °F 75% 30.01 in 10.0 mi NW 13.8 mph 26.5 mph N/A   Overcast
3:55 PM 33.8 °F 21.6 °F 24.8 °F 70% 30.02 in 10.0 mi WNW 23.0 mph - N/A   Overcast
4:15 PM 33.8 °F 23.2 °F 26.6 °F 75% 30.02 in 10.0 mi WNW 17.3 mph 28.8 mph N/A   Overcast
4:35 PM 33.8 °F 22.5 °F 26.6 °F 75% 30.03 in 10.0 mi WNW 19.6 mph 24.2 mph N/A   Overcast
4:55 PM 33.8 °F 22.8 °F 26.6 °F 75% 30.03 in 10.0 mi WNW 18.4 mph 24.2 mph N/A   Overcast
5:15 PM 33.8 °F 23.2 °F 24.8 °F 70% 30.04 in 10.0 mi WNW 17.3 mph 26.5 mph N/A   Overcast
5:35 PM 33.8 °F 23.9 °F 24.8 °F 70% 30.05 in 10.0 mi WNW 15.0 mph 23.0 mph N/A   Overcast
5:55 PM 33.8 °F 22.8 °F 24.8 °F 70% 30.05 in 10.0 mi WNW 18.4 mph 21.9 mph N/A   Mostly Cloudy
6:15 PM 32.0 °F 21.6 °F 24.8 °F 75% 30.07 in 10.0 mi WNW 15.0 mph 23.0 mph N/A   Overcast
6:35 PM 32.0 °F 23.0 °F 24.8 °F 75% 30.08 in 10.0 mi NW 11.5 mph 21.9 mph N/A   Overcast
6:55 PM 32.0 °F 22.1 °F 23.0 °F 69% 30.08 in 10.0 mi NW 13.8 mph 20.7 mph N/A   Mostly Cloudy
7:15 PM 32.0 °F 21.2 °F 23.0 °F 69% 30.09 in 10.0 mi NW 16.1 mph 20.7 mph N/A   Overcast
7:35 PM 32.0 °F 22.5 °F 23.0 °F 69% 30.09 in 10.0 mi NW 12.7 mph - N/A   Scattered Clouds
7:55 PM 32.0 °F 24.8 °F 23.0 °F 69% 30.10 in 10.0 mi NW 8.1 mph - N/A   Clear
8:15 PM 32.0 °F 24.8 °F 23.0 °F 69% 30.10 in 10.0 mi NW 8.1 mph - N/A   Scattered Clouds
8:35 PM 32.0 °F 23.6 °F 23.0 °F 69% 30.11 in 10.0 mi NNW 10.4 mph - N/A   Mostly Cloudy
8:55 PM 30.2 °F 21.9 °F 28.4 °F 93% 30.12 in 10.0 mi North 9.2 mph - N/A   Mostly Cloudy
9:15 PM 30.2 °F 23.4 °F 28.4 °F 93% 30.13 in 10.0 mi North 6.9 mph - N/A   Scattered Clouds
9:35 PM 30.2 °F 22.6 °F 26.6 °F 86% 30.13 in 10.0 mi North 8.1 mph - N/A   Clear
9:55 PM 30.2 °F 24.3 °F 26.6 °F 86% 30.13 in 10.0 mi North 5.8 mph - N/A   Clear
10:15 PM 30.2 °F 25.4 °F 26.6 °F 86% 30.14 in 10.0 mi NNW 4.6 mph - N/A   Clear
10:35 PM 28.4 °F 23.3 °F 26.6 °F 93% 30.14 in 10.0 mi NNW 4.6 mph - N/A   Clear
10:55 PM 28.4 °F 24.6 °F 26.6 °F 93% 30.13 in 10.0 mi North 3.5 mph - N/A   Clear
11:15 PM 28.4 °F - 26.6 °F 93% 30.13 in 10.0 mi Calm Calm - N/A   Clear
11:35 PM 28.4 °F - 26.6 °F 93% 30.13 in 10.0 mi Calm Calm - N/A   Clear
11:55 PM 28.4 °F - 26.6 °F 93% 30.13 in 10.0 mi Calm Calm - N/A   Clear